Time,TemperatureF,DewpointF,PressureIn,WindDirection,WindDirectionDegrees,WindSpeedMPH,WindSpeedGustMPH,Humidity,HourlyPrecipIn,Conditions,Clouds,dailyrainin,SolarRadiationWatts/m^2,SoftwareType,DateUTC
2013-03-22 00:02:00,26.0,19.0,-100.00,WSW,249,12.0,20.0,73,0.00,,,0.01,0.000000,,2013-03-22 07:02:00,
2013-03-22 00:11:00,26.0,19.0,-100.00,WSW,249,12.0,20.0,73,0.00,,,0.01,0.000000,,2013-03-22 07:11:00,
2013-03-22 00:42:00,25.0,18.0,-100.00,WSW,255,11.0,20.0,75,0.00,,,0.01,0.000000,,2013-03-22 07:42:00,
2013-03-22 00:52:00,25.0,18.0,-100.00,WSW,255,11.0,20.0,75,0.00,,,0.01,0.000000,,2013-03-22 07:52:00,
2013-03-22 01:12:00,25.0,18.0,-100.00,WSW,255,11.0,20.0,75,0.00,,,0.01,0.000000,,2013-03-22 08:12:00,
2013-03-22 01:32:00,23.0,17.0,-100.00,WSW,254,9.0,20.0,79,0.00,,,0.01,0.000000,,2013-03-22 08:32:00,
2013-03-22 01:42:00,23.0,17.0,-100.00,WSW,254,9.0,20.0,79,0.00,,,0.01,0.000000,,2013-03-22 08:42:00,
2013-03-22 01:52:00,23.0,17.0,-100.00,WSW,254,9.0,20.0,79,0.00,,,0.01,0.000000,,2013-03-22 08:52:00,
2013-03-22 02:02:00,23.0,17.0,-100.00,WSW,254,9.0,20.0,79,0.00,,,0.01,0.000000,,2013-03-22 09:02:00,
2013-03-22 02:11:00,23.0,17.0,-100.00,WSW,254,9.0,20.0,79,0.00,,,0.01,0.000000,,2013-03-22 09:11:00,
2013-03-22 02:42:00,23.0,17.0,-100.00,WSW,250,10.0,17.0,79,0.00,,,0.01,0.000000,,2013-03-22 09:42:00,
2013-03-22 02:53:00,23.0,17.0,-100.00,WSW,250,10.0,17.0,79,0.00,,,0.01,0.000000,,2013-03-22 09:53:00,
2013-03-22 03:03:00,23.0,17.0,-100.00,WSW,250,10.0,17.0,79,0.00,,,0.01,0.000000,,2013-03-22 10:03:00,
2013-03-22 03:12:00,23.0,17.0,-100.00,WSW,250,10.0,17.0,79,0.00,,,0.01,0.000000,,2013-03-22 10:12:00,
2013-03-22 03:33:00,22.0,18.0,-100.00,WSW,238,5.0,15.0,84,0.00,,,0.01,0.000000,,2013-03-22 10:33:00,
2013-03-22 03:42:00,22.0,18.0,-100.00,WSW,238,5.0,15.0,84,0.00,,,0.01,0.000000,,2013-03-22 10:42:00,
2013-03-22 03:52:00,22.0,18.0,-100.00,WSW,238,5.0,15.0,84,0.00,,,0.01,0.000000,,2013-03-22 10:52:00,
2013-03-22 04:02:00,22.0,18.0,-100.00,WSW,238,5.0,15.0,84,0.00,,,0.01,0.000000,,2013-03-22 11:02:00,
2013-03-22 04:12:00,22.0,18.0,-100.00,WSW,238,5.0,15.0,84,0.00,,,0.01,0.000000,,2013-03-22 11:12:00,
2013-03-22 04:33:00,23.0,18.0,-100.00,WSW,254,14.0,22.0,80,0.00,,,0.01,0.000000,,2013-03-22 11:33:00,
2013-03-22 04:42:00,23.0,18.0,-100.00,WSW,254,14.0,22.0,80,0.00,,,0.01,0.000000,,2013-03-22 11:42:00,
2013-03-22 04:52:00,23.0,18.0,-100.00,WSW,254,14.0,22.0,80,0.00,,,0.01,0.000000,,2013-03-22 11:52:00,
2013-03-22 05:02:00,23.0,18.0,-100.00,WSW,254,14.0,22.0,80,0.00,,,0.01,0.000000,,2013-03-22 12:02:00,
2013-03-22 05:11:00,23.0,18.0,-100.00,WSW,254,14.0,22.0,80,0.00,,,0.01,0.000000,,2013-03-22 12:11:00,
2013-03-22 05:42:00,22.0,16.0,-100.00,West,266,9.0,21.0,78,0.00,,,0.01,0.000000,,2013-03-22 12:42:00,
2013-03-22 05:52:00,22.0,16.0,-100.00,West,266,9.0,21.0,78,0.00,,,0.01,0.000000,,2013-03-22 12:52:00,
2013-03-22 06:02:00,22.0,16.0,-100.00,West,266,9.0,21.0,78,0.00,,,0.01,0.000000,,2013-03-22 13:02:00,
2013-03-22 06:11:00,22.0,16.0,-100.00,West,266,9.0,21.0,78,0.00,,,0.01,0.000000,,2013-03-22 13:11:00,
2013-03-22 06:42:00,22.0,18.0,-100.00,West,278,8.0,16.0,83,0.00,,,0.01,0.000000,,2013-03-22 13:42:00,
2013-03-22 06:52:00,22.0,18.0,-100.00,West,278,8.0,16.0,83,0.00,,,0.01,0.000000,,2013-03-22 13:52:00,
2013-03-22 07:02:00,22.0,18.0,-100.00,West,278,8.0,16.0,83,0.00,,,0.01,0.000000,,2013-03-22 14:02:00,
2013-03-22 07:11:00,22.0,18.0,-100.00,West,278,8.0,16.0,83,0.00,,,0.01,0.000000,,2013-03-22 14:11:00,
2013-03-22 07:43:00,20.0,16.0,-100.00,WSW,255,4.0,16.0,83,0.00,,,0.01,2.000000,,2013-03-22 14:43:00,
2013-03-22 07:52:00,20.0,16.0,-100.00,WSW,255,4.0,16.0,83,0.00,,,0.01,2.000000,,2013-03-22 14:52:00,
2013-03-22 08:02:00,20.0,16.0,-100.00,WSW,255,4.0,16.0,83,0.00,,,0.01,2.000000,,2013-03-22 15:02:00,
2013-03-22 08:11:00,20.0,16.0,-100.00,WSW,255,4.0,16.0,83,0.00,,,0.01,2.000000,,2013-03-22 15:11:00,
2013-03-22 08:43:00,22.0,17.0,-100.00,SW,233,8.0,11.0,81,0.00,,,0.01,52.000000,,2013-03-22 15:43:00,
2013-03-22 08:52:00,22.0,17.0,-100.00,SW,233,8.0,11.0,81,0.00,,,0.01,52.000000,,2013-03-22 15:52:00,
2013-03-22 09:02:00,22.0,17.0,-100.00,SW,233,8.0,11.0,81,0.00,,,0.01,52.000000,,2013-03-22 16:02:00,
2013-03-22 09:13:00,22.0,17.0,-100.00,SW,233,8.0,11.0,81,0.00,,,0.01,52.000000,,2013-03-22 16:13:00,
2013-03-22 09:42:00,25.0,17.0,-100.00,WSW,251,10.0,19.0,71,0.00,,,0.01,204.000000,,2013-03-22 16:42:00,
2013-03-22 09:52:00,25.0,17.0,-100.00,WSW,251,10.0,19.0,71,0.00,,,0.01,204.000000,,2013-03-22 16:52:00,
2013-03-22 10:02:00,25.0,17.0,-100.00,WSW,251,10.0,19.0,71,0.00,,,0.01,204.000000,,2013-03-22 17:02:00,
2013-03-22 10:12:00,25.0,17.0,-100.00,WSW,251,10.0,19.0,71,0.00,,,0.01,204.000000,,2013-03-22 17:12:00,
2013-03-22 10:42:00,27.0,17.0,-100.00,WSW,250,13.0,22.0,65,0.00,,,0.01,429.000000,,2013-03-22 17:42:00,
2013-03-22 10:53:00,27.0,17.0,-100.00,WSW,250,13.0,22.0,65,0.00,,,0.01,429.000000,,2013-03-22 17:53:00,
2013-03-22 11:02:00,27.0,17.0,-100.00,WSW,250,13.0,22.0,65,0.00,,,0.01,429.000000,,2013-03-22 18:02:00,
2013-03-22 11:11:00,27.0,17.0,-100.00,WSW,250,13.0,22.0,65,0.00,,,0.01,429.000000,,2013-03-22 18:11:00,
2013-03-22 11:42:00,27.0,15.0,-100.00,West,264,14.0,25.0,59,0.00,,,0.01,501.000000,,2013-03-22 18:42:00,
2013-03-22 11:52:00,27.0,15.0,-100.00,West,264,14.0,25.0,59,0.00,,,0.01,501.000000,,2013-03-22 18:52:00,
2013-03-22 12:02:00,27.0,15.0,-100.00,West,264,14.0,25.0,59,0.00,,,0.01,501.000000,,2013-03-22 19:02:00,
2013-03-22 12:12:00,27.0,15.0,-100.00,West,264,14.0,25.0,59,0.00,,,0.01,501.000000,,2013-03-22 19:12:00,
2013-03-22 12:43:00,29.0,13.0,-100.00,West,270,16.0,27.0,51,0.00,,,0.01,599.000000,,2013-03-22 19:43:00,
2013-03-22 12:52:00,29.0,13.0,-100.00,West,270,16.0,27.0,51,0.00,,,0.01,599.000000,,2013-03-22 19:52:00,
2013-03-22 13:02:00,29.0,13.0,-100.00,West,270,16.0,27.0,51,0.00,,,0.01,599.000000,,2013-03-22 20:02:00,
2013-03-22 13:12:00,29.0,13.0,-100.00,West,270,16.0,27.0,51,0.00,,,0.01,599.000000,,2013-03-22 20:12:00,
2013-03-22 13:43:00,28.0,15.0,-100.00,West,272,15.0,26.0,58,0.00,,,0.01,642.000000,,2013-03-22 20:43:00,
2013-03-22 13:52:00,28.0,15.0,-100.00,West,272,15.0,26.0,58,0.00,,,0.01,642.000000,,2013-03-22 20:52:00,
2013-03-22 14:02:00,28.0,15.0,-100.00,West,272,15.0,26.0,58,0.00,,,0.01,642.000000,,2013-03-22 21:02:00,
2013-03-22 14:11:00,28.0,15.0,-100.00,West,272,15.0,26.0,58,0.00,,,0.01,642.000000,,2013-03-22 21:11:00,
2013-03-22 14:33:00,29.0,19.0,-100.00,West,260,11.0,32.0,66,0.00,,,0.01,475.000000,,2013-03-22 21:33:00,
2013-03-22 14:43:00,29.0,19.0,-100.00,West,260,11.0,32.0,66,0.00,,,0.01,475.000000,,2013-03-22 21:43:00,
2013-03-22 14:53:00,29.0,19.0,-100.00,West,260,11.0,32.0,66,0.00,,,0.01,475.000000,,2013-03-22 21:53:00,
2013-03-22 15:02:00,29.0,19.0,-100.00,West,260,11.0,32.0,66,0.00,,,0.01,475.000000,,2013-03-22 22:02:00,
2013-03-22 15:12:00,29.0,19.0,-100.00,West,260,11.0,32.0,66,0.00,,,0.01,475.000000,,2013-03-22 22:12:00,
2013-03-22 15:43:00,30.0,12.0,-100.00,WNW,288,17.0,30.0,47,0.00,,,0.01,729.000000,,2013-03-22 22:43:00,
2013-03-22 15:53:00,30.0,12.0,-100.00,WNW,288,17.0,30.0,47,0.00,,,0.01,729.000000,,2013-03-22 22:53:00,
2013-03-22 16:02:00,30.0,12.0,-100.00,WNW,288,17.0,30.0,47,0.00,,,0.01,729.000000,,2013-03-22 23:02:00,
2013-03-22 16:12:00,30.0,12.0,-100.00,WNW,288,17.0,30.0,47,0.00,,,0.01,729.000000,,2013-03-22 23:12:00,
2013-03-22 16:32:00,35.0,15.0,-100.00,West,266,16.0,29.0,44,0.00,,,0.00,594.000000,,2013-03-22 23:32:00,
2013-03-22 16:42:00,35.0,15.0,-100.00,West,266,16.0,29.0,44,0.00,,,0.00,594.000000,,2013-03-22 23:42:00,
2013-03-22 16:52:00,35.0,15.0,-100.00,West,266,16.0,29.0,44,0.00,,,0.00,594.000000,,2013-03-22 23:52:00,
2013-03-22 17:02:00,35.0,15.0,-100.00,West,266,16.0,29.0,44,0.00,,,0.00,594.000000,,2013-03-23 00:02:00,
2013-03-22 17:12:00,35.0,15.0,-100.00,West,266,16.0,29.0,44,0.00,,,0.00,594.000000,,2013-03-23 00:12:00,
2013-03-22 18:32:00,30.0,18.0,-100.00,WNW,294,12.0,29.0,61,-99.99,,,0.00,342.000000,,2013-03-23 01:32:00,
2013-03-22 18:43:00,30.0,18.0,-100.00,WNW,294,12.0,29.0,61,-99.99,,,0.00,342.000000,,2013-03-23 01:43:00,
2013-03-22 18:52:00,30.0,18.0,-100.00,WNW,294,12.0,29.0,61,-99.99,,,0.00,342.000000,,2013-03-23 01:52:00,
2013-03-22 19:02:00,30.0,18.0,-100.00,WNW,294,12.0,29.0,61,-99.99,,,0.00,342.000000,,2013-03-23 02:02:00,
2013-03-22 19:12:00,30.0,18.0,-100.00,WNW,294,12.0,29.0,61,-99.99,,,0.00,342.000000,,2013-03-23 02:12:00,
2013-03-22 19:42:00,28.0,17.0,-100.00,West,275,13.0,20.0,62,0.00,,,0.00,72.000000,,2013-03-23 02:42:00,
2013-03-22 19:52:00,28.0,17.0,-100.00,West,275,13.0,20.0,62,0.00,,,0.00,72.000000,,2013-03-23 02:52:00,
2013-03-22 20:02:00,28.0,17.0,-100.00,West,275,13.0,20.0,62,0.00,,,0.00,72.000000,,2013-03-23 03:02:00,
2013-03-22 20:11:00,28.0,17.0,-100.00,West,275,13.0,20.0,62,0.00,,,0.00,72.000000,,2013-03-23 03:11:00,
2013-03-22 20:43:00,25.0,16.0,-100.00,West,277,8.0,19.0,68,0.00,,,-99.99,1.000000,,2013-03-23 03:43:00,
2013-03-22 20:53:00,25.0,16.0,-100.00,West,277,8.0,19.0,68,0.00,,,-99.99,1.000000,,2013-03-23 03:53:00,
2013-03-22 21:02:00,25.0,16.0,-100.00,West,277,8.0,19.0,68,0.00,,,-99.99,1.000000,,2013-03-23 04:02:00,
2013-03-22 21:12:00,25.0,16.0,-100.00,West,277,8.0,19.0,68,0.00,,,-99.99,1.000000,,2013-03-23 04:12:00,
2013-03-22 21:33:00,25.0,18.0,-100.00,West,259,9.0,13.0,73,0.00,,,0.00,0.000000,,2013-03-23 04:33:00,
2013-03-22 21:43:00,25.0,18.0,-100.00,West,259,9.0,13.0,73,0.00,,,0.00,0.000000,,2013-03-23 04:43:00,
2013-03-22 21:53:00,25.0,18.0,-100.00,West,259,9.0,13.0,73,0.00,,,0.00,0.000000,,2013-03-23 04:53:00,
2013-03-22 22:02:00,25.0,18.0,-100.00,West,259,9.0,13.0,73,0.00,,,0.00,0.000000,,2013-03-23 05:02:00,
2013-03-22 22:12:00,25.0,18.0,-100.00,West,259,9.0,13.0,73,0.00,,,0.00,0.000000,,2013-03-23 05:12:00,
2013-03-22 22:42:00,25.0,18.0,-100.00,West,270,9.0,15.0,74,0.00,,,0.00,0.000000,,2013-03-23 05:42:00,
2013-03-22 22:52:00,25.0,18.0,-100.00,West,270,9.0,15.0,74,0.00,,,0.00,0.000000,,2013-03-23 05:52:00,
2013-03-22 23:02:00,25.0,18.0,-100.00,West,270,9.0,15.0,74,0.00,,,0.00,0.000000,,2013-03-23 06:02:00,
2013-03-22 23:12:00,25.0,18.0,-100.00,West,270,9.0,15.0,74,0.00,,,0.00,0.000000,,2013-03-23 06:12:00,
2013-03-22 23:42:00,24.0,18.0,-100.00,West,261,7.0,16.0,79,0.00,,,0.00,0.000000,,2013-03-23 06:42:00,
2013-03-22 23:52:00,24.0,18.0,-100.00,West,261,7.0,16.0,79,0.00,,,0.00,0.000000,,2013-03-23 06:52:00,